Clinton, IA

2:52 PM CST on November 22, 2017 (GMT -0600)
Clinton Municipal

Weather History for KCWI - January, 2014

Change the Weather History Date:

Sunday, January 12, 2014

  Actual Average Record
Temperature  
Mean Temperature 32 °F -  
Max Temperature 41 °F 27 °F 57 °F (1960)
Min Temperature 23 °F 11 °F -23 °F (1974)
Degree Days  
Heating Degree Days 33    
Moisture  
Dew Point 27 °F    
Average Humidity 79    
Maximum Humidity 93    
Minimum Humidity 61    
Precipitation  
Precipitation 0.00 in - - ()
Sea Level Pressure  
Sea Level Pressure 29.69 in    
Wind  
Wind Speed 12 mph (South)    
Max Wind Speed 18 mph    
Max Gust Speed 24 mph    
Visibility 10 miles    
Events      
Averages and records for this station are not official NWS values.
T = Trace of Precipitation, MM = Missing Value Source: NWS Daily Summary

Daily Weather History Graph

Daily Weather History Graph

Search for Another Location

Airport or City:

Trip Planner

Search our weather history database for the weather conditions in past years. The results will help you decide how hot, cold, wet, or windy it might be!

Date:

Astronomy

Jan. 12, 2014 Rise Set
Actual Time 7:27 AM CST 4:52 PM CST
Civil Twilight 6:56 AM CST 5:23 PM CST
Nautical Twilight 6:22 AM CST 5:57 PM CST
Astronomical Twilight 5:48 AM CST 6:31 PM CST
Moon 2:20 PM CST (1/12) 4:25 AM CST (1/12)
Length of Visible Light 10h 26m
Length of Day
9h 24m
Waxing Gibbous, 90% of the Moon is Illuminated
Jan 12
Waxing Gibbous
Jan 15
Full
Jan 23
Last Quarter
Jan 30
New
Feb 6
First Quarter

Hourly Weather History & Observations

Time (CST) Temp. Windchill Dew Point Humidity Pressure Visibility Wind Dir Wind Speed Gust Speed Precip Events Conditions
12:15 AM 28.4 °F 17.5 °F 24.8 °F 86% 29.85 in 10.0 mi West 13.8 mph - N/A   Overcast
12:35 AM 30.2 °F 18.9 °F 24.8 °F 80% 29.85 in 10.0 mi West 16.1 mph - N/A   Overcast
12:55 AM 28.4 °F 18.0 °F 26.6 °F 93% 29.85 in 10.0 mi West 12.7 mph - N/A   Overcast
1:15 AM 28.4 °F 19.1 °F 24.8 °F 86% 29.84 in 10.0 mi West 10.4 mph - N/A   Overcast
1:35 AM 28.4 °F 17.0 °F 24.8 °F 86% 29.85 in 10.0 mi WSW 15.0 mph - N/A   Overcast
1:55 AM 28.4 °F 17.5 °F 24.8 °F 86% 29.84 in 10.0 mi WSW 13.8 mph - N/A   Overcast
2:15 AM 28.4 °F 19.1 °F 24.8 °F 86% 29.85 in 10.0 mi WSW 10.4 mph - N/A   Overcast
2:35 AM 26.6 °F 19.1 °F 23.0 °F 86% 29.86 in 10.0 mi SW 6.9 mph - N/A   Scattered Clouds
2:55 AM 24.8 °F 16.9 °F 21.2 °F 86% 29.85 in 10.0 mi SSW 6.9 mph - N/A   Clear
3:15 AM 24.8 °F 17.9 °F 21.2 °F 86% 29.84 in 10.0 mi SSW 5.8 mph - N/A   Clear
3:35 AM 23.0 °F 13.9 °F 21.2 °F 93% 29.83 in 9.0 mi South 8.1 mph - N/A   Clear
3:55 AM 24.8 °F 15.3 °F 21.2 °F 86% 29.83 in 8.0 mi South 9.2 mph - N/A   Clear
4:15 AM 24.8 °F 16.1 °F 21.2 °F 86% 29.82 in 7.0 mi South 8.1 mph - N/A   Clear
4:35 AM 24.8 °F 15.3 °F 21.2 °F 86% 29.81 in 5.0 mi SSE 9.2 mph - N/A   Clear
4:55 AM 24.8 °F 15.3 °F 23.0 °F 93% 29.80 in 7.0 mi SSE 9.2 mph - N/A   Clear
5:15 AM 24.8 °F 16.9 °F 23.0 °F 93% 29.81 in 8.0 mi South 6.9 mph - N/A   Clear
5:35 AM 24.8 °F 14.6 °F 23.0 °F 93% 29.81 in 9.0 mi SSE 10.4 mph - N/A   Clear
5:55 AM 26.6 °F 16.2 °F 23.0 °F 86% 29.78 in 8.0 mi SSE 11.5 mph - N/A   Clear
6:15 AM 26.6 °F 16.2 °F 23.0 °F 86% 29.77 in 10.0 mi SSE 11.5 mph - N/A   Clear
6:35 AM 26.6 °F 16.2 °F 23.0 °F 86% 29.78 in 10.0 mi SSE 11.5 mph - N/A   Clear
6:55 AM 26.6 °F 16.2 °F 24.8 °F 93% 29.78 in 10.0 mi SSE 11.5 mph - N/A   Clear
7:15 AM 26.6 °F 16.8 °F 24.8 °F 93% 29.78 in 8.0 mi SSE 10.4 mph - N/A   Clear
7:35 AM 26.6 °F 16.2 °F 24.8 °F 93% 29.78 in 8.0 mi SSE 11.5 mph - N/A   Clear
7:55 AM 28.4 °F 18.0 °F 24.8 °F 86% 29.76 in 10.0 mi SSE 12.7 mph - N/A   Clear
8:15 AM 28.4 °F 16.6 °F 24.8 °F 86% 29.77 in 10.0 mi South 16.1 mph - N/A   Clear
8:35 AM 28.4 °F 17.5 °F 26.6 °F 93% 29.77 in 10.0 mi South 13.8 mph - N/A   Clear
8:55 AM 30.2 °F 18.9 °F 26.6 °F 86% 29.77 in 10.0 mi South 16.1 mph - N/A   Clear
9:15 AM 32.0 °F 20.8 °F 26.6 °F 80% 29.76 in 10.0 mi South 17.3 mph 23.0 mph N/A   Clear
9:35 AM 33.8 °F 24.3 °F 26.6 °F 75% 29.76 in 10.0 mi South 13.8 mph - N/A   Clear
9:55 AM 33.8 °F 22.8 °F 28.4 °F 81% 29.75 in 10.0 mi South 18.4 mph - N/A   Clear
10:15 AM 35.6 °F 25.5 °F 28.4 °F 75% 29.74 in 10.0 mi South 17.3 mph - N/A   Clear
10:35 AM 35.6 °F 25.2 °F 28.4 °F 75% 29.73 in 10.0 mi South 18.4 mph - N/A   Clear
10:55 AM 37.4 °F 28.2 °F 28.4 °F 70% 29.71 in 10.0 mi South 16.1 mph - N/A   Clear
11:15 AM 37.4 °F 27.5 °F 28.4 °F 70% 29.69 in 10.0 mi SSE 18.4 mph 21.9 mph N/A   Clear
11:35 AM 37.4 °F 27.5 °F 28.4 °F 70% 29.66 in 10.0 mi SSE 18.4 mph 23.0 mph N/A   Clear
11:55 AM 37.4 °F 27.8 °F 28.4 °F 70% 29.63 in 10.0 mi SSE 17.3 mph 24.2 mph N/A   Clear
12:15 PM 39.2 °F 30.8 °F 28.4 °F 65% 29.63 in 10.0 mi SSE 15.0 mph 21.9 mph N/A   Clear
12:35 PM 39.2 °F 30.5 °F 28.4 °F 65% 29.62 in 10.0 mi South 16.1 mph - N/A   Clear
12:55 PM 39.2 °F 33.6 °F 28.4 °F 65% 29.63 in 10.0 mi South 8.1 mph - N/A   Clear
1:15 PM 41.0 °F 33.9 °F 28.4 °F 61% 29.61 in 10.0 mi South 12.7 mph - N/A   Clear
1:35 PM 41.0 °F 33.9 °F 28.4 °F 61% 29.58 in 10.0 mi South 12.7 mph - N/A   Clear
1:55 PM 41.0 °F 32.8 °F 28.4 °F 61% 29.56 in 10.0 mi SSE 16.1 mph - N/A   Clear
2:15 PM 39.2 °F 30.5 °F 30.2 °F 70% 29.56 in 10.0 mi South 16.1 mph - N/A   Clear
2:35 PM 41.0 °F 32.8 °F 30.2 °F 65% 29.55 in 10.0 mi South 16.1 mph - N/A   Clear
2:55 PM 41.0 °F 33.1 °F 30.2 °F 65% 29.57 in 10.0 mi South 15.0 mph - N/A   Clear
3:15 PM 39.2 °F 31.6 °F 30.2 °F 70% 29.57 in 10.0 mi SSE 12.7 mph - N/A   Clear
3:35 PM 41.0 °F 34.3 °F 30.2 °F 65% 29.58 in 10.0 mi SSE 11.5 mph - N/A   Clear
3:55 PM 39.2 °F 32.0 °F 30.2 °F 70% 29.59 in 10.0 mi South 11.5 mph - N/A   Clear
4:15 PM 39.2 °F 33.0 °F 30.2 °F 70% 29.59 in 10.0 mi South 9.2 mph - N/A   Clear
4:35 PM 39.2 °F 33.6 °F 30.2 °F 70% 29.59 in 10.0 mi South 8.1 mph - N/A   Clear
4:55 PM 37.4 °F 32.1 °F 30.2 °F 75% 29.59 in 10.0 mi South 6.9 mph - N/A   Clear
5:15 PM 39.2 °F 32.5 °F 30.2 °F 70% 29.59 in 10.0 mi SSE 10.4 mph - N/A   Clear
5:35 PM 39.2 °F 33.6 °F 30.2 °F 70% 29.59 in 10.0 mi South 8.1 mph - N/A   Clear
5:55 PM 37.4 °F 31.4 °F 30.2 °F 75% 29.59 in 10.0 mi South 8.1 mph - N/A   Clear
6:15 PM 37.4 °F 31.4 °F 30.2 °F 75% 29.60 in 10.0 mi South 8.1 mph - N/A   Clear
6:35 PM 37.4 °F 32.1 °F 30.2 °F 75% 29.61 in 10.0 mi South 6.9 mph - N/A   Clear
6:55 PM 37.4 °F 32.8 °F 30.2 °F 75% 29.61 in 10.0 mi South 5.8 mph - N/A   Clear
7:15 PM 37.4 °F 31.4 °F 30.2 °F 75% 29.60 in 10.0 mi South 8.1 mph - N/A   Clear
7:35 PM 37.4 °F 30.8 °F 30.2 °F 75% 29.60 in 10.0 mi South 9.2 mph - N/A   Clear
7:55 PM 37.4 °F 32.1 °F 30.2 °F 75% 29.60 in 10.0 mi South 6.9 mph - N/A   Clear
8:15 PM 37.4 °F 33.8 °F 30.2 °F 75% 29.60 in 10.0 mi South 4.6 mph - N/A   Clear
8:35 PM 35.6 °F 30.7 °F 30.2 °F 81% 29.59 in 10.0 mi South 5.8 mph - N/A   Clear
8:55 PM 35.6 °F 29.9 °F 30.2 °F 81% 29.59 in 10.0 mi South 6.9 mph - N/A   Clear
9:15 PM 37.4 °F 33.8 °F 30.2 °F 75% 29.59 in 10.0 mi South 4.6 mph - N/A   Clear
9:35 PM 37.4 °F 32.1 °F 30.2 °F 75% 29.58 in 10.0 mi South 6.9 mph - N/A   Clear
9:55 PM 35.6 °F 29.9 °F 30.2 °F 81% 29.59 in 10.0 mi South 6.9 mph - N/A   Clear
10:15 PM 35.6 °F - 30.2 °F 81% 29.59 in 10.0 mi Calm Calm - N/A   Clear
10:35 PM 35.6 °F 31.7 °F 30.2 °F 81% 29.59 in 10.0 mi SSW 4.6 mph - N/A   Clear
10:55 PM 35.6 °F 29.9 °F 30.2 °F 81% 29.58 in 10.0 mi SSW 6.9 mph - N/A   Clear
11:15 PM 33.8 °F 30.8 °F 28.4 °F 81% 29.58 in 10.0 mi SSW 3.5 mph - N/A   Clear
11:35 PM 35.6 °F 32.8 °F 30.2 °F 81% 29.58 in 10.0 mi South 3.5 mph - N/A   Clear
11:55 PM 35.6 °F 31.7 °F 30.2 °F 81% 29.58 in 10.0 mi South 4.6 mph - N/A   Clear